Flag for Poland Weather past 2 weeks in Lidzbark Warmiński, Poland

Now
61 °F

Overcast.


Feels Like: 61 °F
Forecast: 52 / 70 °F
Wind: 3 mph from Northeast

Location: Ketrzyn

Current Time: Sep 2, 2014 at 7:06:14 PM

Latest Report: Sep 2, 2014 at 6:00 PM


Visibility: 28 mi

Pressure: 30.22 "Hg

Humidity: 64%

Dew point: 48 °F

Location of Lidzbark WarmińskiLocation

Historic Weather in Lidzbark Warmiński — Graph

°F

Lidzbark Warmiński temperature yesterday

Maximum temperature yesterday: 65 °F (at 2:00 PM)
Minimum temperature yesterday: 50 °F (at 5:00 AM)
Average temperature yesterday: 57 °F

Past Weeks' High & Low Weather Summary

 TemperatureHumidityPressure
High71 °F (Aug 23, 3:00 PM)99% (Aug 29, 6:00 AM)30.22 "Hg (Aug 29, 6:00 AM)
Low45 °F (Sep 2, 6:00 AM)38% (Aug 28, 4:00 PM)29.63 "Hg (Aug 18, 6:00 PM)
Average58 °F74%29.91 "Hg
* Reported Aug 18 5:00 PM — Sep 2 5:00 PM, Lidzbark Warmiński, Weather by CustomWeather, © 2014

Note: Actual official high and low records may vary slightly from our data, if they occured in-between our weather recording intervals... More about our weather records

Advertising

Lidzbark Warmiński weather history for previous 24 hours

 ConditionsComfort  
Time TempWeatherWind HumidityBarometerVisibility
5:00 PM
Sep 2
62 °FOvercast.3 mph61%30.22 "Hg25 mi
4:00 PM63 °FPartly sunny.7 mph59%30.21 "Hg19 mi
3:00 PM64 °FPartly sunny.5 mph62%30.20 "Hg19 mi
2:00 PM65 °FPartly sunny.5 mph57%30.20 "Hg18 mi
1:00 PM63 °FPartly sunny.5 mph58%30.20 "Hg19 mi
12:00 PM62 °FPartly sunny.3 mph61%30.19 "Hg12 mi
11:00 AM61 °FPartly sunny.3 mph64%30.19 "Hg19 mi
10:00 AM60 °FOvercast.6 mph66%30.19 "Hg25 mi
9:00 AM58 °FPartly sunny.2 mph78%30.18 "Hg25 mi
8:00 AM53 °FPartly sunny.2 mph91%30.18 "Hg17 mi
7:00 AM46 °FPartly sunny.No wind95%30.18 "Hg13 mi
6:00 AM45 °FFog.1 mph96%30.16 "Hg16 mi
5:00 AM46 °FPassing clouds.1 mph95%30.16 "Hg19 mi
4:00 AM46 °FPassing clouds.No wind93%30.16 "Hg16 mi
3:00 AM50 °FOvercast.1 mph83%30.14 "Hg28 mi
2:00 AM51 °FOvercast.1 mph84%30.14 "Hg31 mi
1:00 AM53 °FOvercast.1 mph79%30.13 "Hg31 mi
12:00 AM54 °FOvercast.2 mph77%30.13 "Hg25 mi
11:00 PM
Sep 1
55 °FOvercast.2 mph77%30.12 "Hg22 mi
10:00 PM55 °FOvercast.1 mph75%30.12 "Hg28 mi
9:00 PM57 °FOvercast.2 mph68%30.11 "Hg19 mi
8:00 PM59 °FOvercast.2 mph65%30.09 "Hg25 mi
7:00 PM61 °FOvercast.2 mph59%30.08 "Hg19 mi
Weather by CustomWeather, © 2014

See weather overviewHow to use our weather pages